Regional Weather Roundup
Issued by NWS Grand Forks, ND

Home | Current Version | Previous Version | Graphics & Text | Print | Product List | Glossary On
Versions: 1 2 3 4 5 6 7 8 9 10 11 12 13 14 15 16 17 18 19 20 21 22 23 24 25 26 27 28 29 30 31 32 33 34 35 36 37 38 39 40 41 42 43 44 45 46 47 48 49 50
000
ASUS43 KFGF 221410
RWRFGF
PRAIRIE TO PINES  WEATHER ROUNDUP
NATIONAL WEATHER SERVICE EASTERN NORTH DAKOTA/GRAND FORKS ND
900 AM CDT SUN OCT 22 2017

 **SATELLITE DATA USED TO AUGMENT SKY COVER AT AUTOMATED STATIONS**
 *****  WEATHER ACROSS EASTERN NORTH DAKOTA  *****

CITY           SKY/WX    TMP DP  RH WIND       PRES   REMARKS
GRAND FORKS    FAIR      43  34  70 SW14      29.80R
GRAND FRKS AFB FAIR      42  31  65 SW13      29.80R
DEVILS LAKE    FAIR      40  33  76 SW12      29.79R
FARGO          FAIR      41  34  76 SW10      29.88R
WAHPETON ARPT  NOT AVBL
$$

 ***** WEATHER ACROSS CENTRAL AND WESTERN NORTH DAKOTA  *****

CITY           SKY/WX    TMP DP  RH WIND       PRES   REMARKS
BISMARCK       FAIR      33  26  75 CALM      29.86S
MINOT          FAIR      39  28  64 SW12      29.75R
JAMESTOWN      FAIR      39  29  67 SW12      29.86R
MINOT AFB      FAIR      38  28  66 SW10      29.73S
GARRISON         N/A     37  31  78 SW10      29.78F
WILLISTON      FAIR      31  25  78 S5        29.74F
DICKINSON      FAIR      38  20  48 SW16      29.78F
HETTINGER      FAIR      34  21  59 S6        29.86F
$$

 *****  OTHER AIRPORT OBSERVATIONS IN OUR AREA  *****

CITY           SKY/WX    TMP DP  RH WIND       PRES   REMARKS
WALHALLA       FAIR     N/A N/A N/A W12G21    29.71R
GRAFTON AIRPOR FAIR      41  34  75 SW15      29.77R
VALLEY CITY AR NOT AVBL
CANDO          FAIR      34  34 100 SW12      29.78S
CAVALIER APRT  FAIR      41  34  75 SW14      29.71R
GWINNER          N/A     36  32  87 SW10      29.93R
SHEYENNE NWR     N/A     37  33  85 SW5       29.95S
ROLLA          FAIR      34  30  86 SW15G21   29.74R WCI  24
 ***** THE ABOVE OBSERVATIONS ARE NON NWS ARE NOT QUALITY
       CONTROLLED AND MAY MIS-REPORT RAIN FOR SNOW...
$$

  *****  WEATHER ACROSS NORTHERN MINNESOTA  *****

CITY           SKY/WX    TMP DP  RH WIND       PRES   REMARKS
FLAG ISLAND    CLOUDY    45  39  81 SW16G24   29.63R
WARROAD        FAIR      45  37  76 SW16G24   29.70R
ROSEAU         FAIR      45  37  76 SW15G21   29.71R
HALLOCK        FAIR      43  36  75 SW15      29.72S
THF RVR FALLS  FAIR      42  33  70 SW17G25   29.80R
BAUDETTE       FAIR      44  36  73 SW15G30   29.71R
WASKISH        FAIR      46  39  76 SW16G29   29.77R
CROOKSTON      FAIR      43  34  70 SW15      29.82R
STEPHEN NDAWN    N/A     43  34  70 SW10        N/A
GREENBUSH NDAW   N/A     43  34  70 SW16        N/A
$$
  *****  WEATHER ACROSS CENTRAL AND WEST MINNESOTA  *****

CITY           SKY/WX    TMP DP  RH WIND       PRES   REMARKS
FOSSTON        FAIR      39  34  81 SW13      29.85R
BEMIDJI        FAIR      43  34  71 SW8G17    29.82R
PARK RAPIDS    FAIR      43  36  76 W8        29.87R
ELBOW LAKE     FAIR      39  35  86 SW8       29.94R
WADENA         FAIR      43  36  75 SW7       29.90R
DETROIT LAKES  FAIR      43  34  70 SW9       29.90R
MOORHEAD       FAIR      39  32  75 SW8       29.90R
FERGUS FALLS   FAIR      39  34  81 W8        29.94S
MORRIS MN      FAIR      41  37  87 W8        29.95R
STAPLES        FAIR      43  36  75 SW8       29.90R
$$
  *****  WEATHER ELSEWHERE ACROSS MINNESOTA  *****

CITY           SKY/WX    TMP DP  RH WIND       PRES   REMARKS
DULUTH         FAIR      45  41  86 W13       29.85R
INTRNTL FALLS  FAIR      43  39  86 SW12      29.72R
ELY            FAIR      46  39  76 SW10G16   29.79R
CLOQUET        FAIR      46  39  76 SW9       29.87R
WHEATON        FAIR      41  34  75 SW9       29.96F
BRAINERD       FAIR     N/A N/A N/A SW10      29.90R
HIBBING        FAIR      43  39  86 SW6       29.83R
ALEXANDRIA     FAIR      43  38  82 SW9       29.95R
SAINT CLOUD    FAIR      42  40  92 W7        29.95R
MINNEAPOLIS    PTSUNNY   49  42  77 W9        29.98R
$$

  *****  WEATHER ACROSS SOUTH DAKOTA  *****

CITY           SKY/WX    TMP DP  RH WIND       PRES   REMARKS
SIOUX FALLS    FAIR      43  34  70 CALM      30.06R
BROOKINGS      FAIR      37  32  82 S8        30.02R
WATERTOWN      FAIR      37  34  89 S9        29.99R
HURON          FAIR      40  32  73 S6        30.01S
SISSETON         N/A     45  33  63 SW14      29.94R
ABERDEEN       FAIR      33  30  88 S5        29.96S
MITCHELL       FAIR      42  31  64 SW8       30.04S
PIERRE         FAIR      35  28  75 SW6       29.97R
MOBRIDGE       FAIR      39  30  70 SE5       29.92R
RAPID CITY     FAIR      33  18  53 CALM      29.95S
$$

  *****  SOME WEATHER IN NEARBY STATES *****

CITY           SKY/WX    TMP DP  RH WIND       PRES   REMARKS
GLASGOW MT     CLOUDY    40  28  62 SE9       29.65F
GREAT FALLS MT FAIR      51  34  52 SW17G29   29.71R
CHEYENNE WY    FAIR      44  20  38 W31G41    30.14R
SCOTTSBLUFF NE FAIR      40  22  48 W5        30.08R
OMAHA NE       PTSUNNY   46  38  73 CALM      30.11R
DES MOINES IA  PTSUNNY   51  44  77 NW8       30.05R
DAVENPORT IA   LGT RAIN  53  51  93 NW9       29.97R
CHICAGO IL     PTSUNNY   67  57  70 S21       29.94S
EAU CLAIRE WI  CLOUDY    50  43  77 SW6       29.95R
LA CROSSE WI   CLOUDY    53  47  79 W5        29.97R
$$

  *****  SOME NATIONAL WEATHER *****

CITY           SKY/WX    TMP DP  RH WIND       PRES   REMARKS
LA GUARDIA NY  PTSUNNY   66  53  63 VRB3      30.41S
RALEIGH NC     PTSUNNY   65  59  81 VRB3      30.38S
ATLANTA GA     PTSUNNY   64  61  90 E12       30.28R
NEW ORLEANS LA FAIR      74  73  97 S5        30.04R
OKLAHOMA CITY  FAIR      51  46  83 N10       30.17S
ALBUQUERQUE NM FAIR      39   9  29 CALM      30.38S
SALT LAKE CITY MOCLDY    49  22  34 SE12      30.36F
LOS ANGELES CA FAIR      65  35  33 NE3       30.09S
BOISE ID       CLOUDY    48  39  71 SE12      30.21S
SEATTLE WA     MOCLDY    53  49  86 S8        29.96R
$$

*** WEATHER ACROSS MANITOBA...SASKATCHEWAN AND ONTARIO ***
                ***ONTARIO***

CITY           SKY/WX    TMP DP  RH WIND       PRES   REMARKS
GERALDTON      CLOUDY    57  55  94 S14G25    29.68F FOG
THUNDER BAY    LGT RAIN  55  45  67 W13       29.74R
SIOUX LOOKOUT  LGT RAIN  46  41  81 SW9G18    29.58S
TORONTO        PTSUNNY   61  55  82 SE5       30.24F
BIG TROUT LK   LGT RAIN  50  50 100 SW9       29.34F
PICKLE LAKE    CLOUDY    48  46  93 SW13      29.51S
DRYDEN         LGT RAIN  45  41  87 SW17      29.59S
KENORA         CLOUDY    45  37  76 W21G33    29.59R
$$
                *** MANITOBA***

CITY           SKY/WX    TMP DP  RH WIND       PRES   REMARKS
BRANDON        PTCLDY    34  30  86 SW13      29.68R WCI  25
DAUPHIN        CLEAR     39  34  81 W20G28    29.57R
ISLAND LAKE    LGT RAIN  43  41  93 SW12G20   29.28F
PILOT MOUND      N/A     34  30  86 SW12        N/A
THE PAS        CLOUDY    37  36  93 W13G21    29.44R
THOMPSON       LGT RAIN  34  32  93 NW8       29.20F FOG
WINNIPEG       MOCLDY    45  37  76 W21       29.63R
CHURCHILL      LGT RAIN  37  37 100 NE15G22   29.17F FOG
$$
                ***SASKATCHEWAN***

CITY           SKY/WX    TMP DP  RH WIND       PRES   REMARKS
ESTEVAN        MOCLDY    32  25  74 SW14      29.69F WCI  22
KINDERSLEY     MOCLDY    34  28  80 S12G18    29.41F
LLOYDMINSTER   MOCLDY    28  27  93 SE6       29.39F WCI  22
PRINCE ALBERT  FOG       28  28 100 E5        29.55F VSB 1/4 WCI  23
REGINA         CLOUDY    28  25  86 SE7       29.61F WCI  21
YORKTON        CLEAR     30  28  93 SW8       29.59F WCI  23
N. BATTLEFORD  MOCLDY    30  27  86 E7        29.46F WCI  23
LA RONGE       CLOUDY    32  32 100 SW6       29.53F
SASKATOON      CLOUDY    30  27  86 SE7       29.51F WCI  23
SWIFT CURRENT  CLOUDY    37  30  75 S16       29.46F
$$
NOTE: THESE ARE AUTOMATED STATIONS WITH LIMITED QUALITY CONTROL
      "FAIR" INDICATES FEW OR NO CLOUDS BELOW 12,000 FEET WITH NO
      SIGNIFICANT WEATHER AND/OR OBSTRUCTIONS TO VISIBILITY.
      SKY/WX - SKY CONDITION AND SIGNIFICANT WEATHER.
      TMP - AIR TEMPERATURE.    DP   - DEWPOINT TEMPERATURE.
      RH  - RELATIVE HUMIDITY.  PRES - PRESSURE.
      HX  - HEAT INDEX.         WCI  - WIND CHILL INDEX.
$




USA.gov is the U.S. government's official web portal to all federal, state and local government web resources and services.